sat.trackr.live / text

‹ back to catalog

STARLINK-33751

NORAD 63512 · 2025-071V

PAYLOAD ACTIVE UNKNOWN

§ Identity

Operator
Country
US
Launch date
2025-04-07
Launch site
AFWTR
Launch vehicle
Mass (kg)
RCS (m²)

Purposes: comms

External: N2YO · Heavens-Above · Gunter

§ Orbital elements

Epoch: 2026-09-20T10:19:53.043456Z

Period
94.01 min
Inclination
53.1571°
Eccentricity
0.0000752
Mean motion
15.31723088 rev/d
Perigee alt
470.2 km
Apogee alt
471.2 km
Semi-major
6,848.8 km
B*
4.7968e-4
RAAN
314.0515°
Arg perigee
46.1121°
Mean anomaly
313.9943°
Rev number
8,258

§ Raw data

STARLINK-337511 63512U 25071V   26263.43047504  .00014560  00000+0  47968-3 0  99902 63512  53.1571 314.0515 0000752  46.1121 313.9943 15.31723088 82582

JSON: /api/v1/satellites/63512 · /tle

For live sub-satellite position, see the globe view (requires WebGL).

§ Visibility from observer

Set your observer location to see the next 7 days of passes ≥ 10°. The values pass through the URL so the page stays shareable.

No JS? Fill the form by hand. The geolocation button needs JavaScript.